When you browse on this site, cookies collect data to enhance your experience and personalize the content and advertising you see.
Visit our Privacy Policy to learn more. By continuing to use the site, you agree to this use of cookies and data.
  • In Austria
  • List of Countries
  • For 7 days
  • Water Temperature
  • Satellite Maps
  • Weather Map
  • News
  • Weather Widgets
  • user-avatar
    Login

    Hourly Weather Superior

    Today, 19 February, Tuesday

    Time Temperature Precipitation Wind Pressure Humidity
    00:00 -14°C° 0 mm 1 mps 757 mmHg 89%
    01:00 -14°C° 0 mm 1 mps 757 mmHg 90%
    02:00 -15°C° 0 mm 1 mps 757 mmHg 91%
    03:00 -15°C° 0 mm 1 mps 757 mmHg 93%
    04:00 -15°C° 0 mm 1 mps 757 mmHg 94%
    05:00 -16°C° 0 mm 1 mps 757 mmHg 95%
    06:00 -16°C° 0 mm 1 mps 758 mmHg 96%
    07:00 -18°C° 0 mm 2 mps 758 mmHg 95%
    08:00 -17°C° 0 mm 2 mps 758 mmHg 93%
    09:00 -16°C° 0 mm 2 mps 758 mmHg 92%
    10:00 -14°C° 0 mm 2 mps 757 mmHg 88%
    11:00 -12°C° 0 mm 2 mps 757 mmHg 85%
    12:00 -12°C° 0 mm 3 mps 756 mmHg 81%
    13:00 -10°C° 0 mm 3 mps 756 mmHg 81%
    14:00 -9°C° 0 mm 3 mps 755 mmHg 80%
    15:00 -9°C° 0 mm 3 mps 755 mmHg 79%
    16:00 -10°C° 0 mm 3 mps 754 mmHg 84%
    17:00 -10°C° 0 mm 2 mps 753 mmHg 89%
    18:00 -13°C° 0 mm 2 mps 753 mmHg 93%
    19:00 -13°C° 0 mm 2 mps 753 mmHg 94%
    20:00 -14°C° 0 mm 3 mps 753 mmHg 94%
    21:00 -15°C° 0 mm 3 mps 753 mmHg 95%
    22:00 -14°C° 0 mm 2 mps 753 mmHg 95%
    23:00 -13°C° 0 mm 2 mps 752 mmHg 95%

    Tomorrow, 20 February, Wednesday

    Time Temperature Precipitation Wind Pressure Humidity
    00:00 -11°C° 0 mm 1 mps 752 mmHg 95%
    01:00 -11°C° 0 mm 1 mps 751 mmHg 96%
    02:00 -11°C° 0 mm 1 mps 750 mmHg 96%
    03:00 -11°C° 0 mm 1 mps 749 mmHg 97%
    04:00 -11°C° 0.1 mm 1 mps 748 mmHg 97%
    05:00 -10°C° 0.1 mm 1 mps 747 mmHg 97%
    06:00 -10°C° 0.1 mm 1 mps 746 mmHg 97%
    07:00 -12°C° 0.5 mm 2 mps 746 mmHg 96%
    08:00 -10°C° 0.5 mm 2 mps 745 mmHg 96%
    09:00 -12°C° 0.5 mm 3 mps 745 mmHg 96%
    10:00 -10°C° 0.5 mm 3 mps 743 mmHg 95%
    11:00 -10°C° 0.5 mm 4 mps 742 mmHg 94%
    12:00 -9°C° 0.5 mm 4 mps 741 mmHg 94%
    13:00 -8°C° 0.4 mm 4 mps 740 mmHg 93%
    14:00 -8°C° 0.4 mm 4 mps 739 mmHg 93%
    15:00 -7°C° 0.4 mm 4 mps 738 mmHg 93%
    16:00 -8°C° 0.4 mm 4 mps 737 mmHg 94%
    17:00 -7°C° 0.4 mm 3 mps 737 mmHg 95%
    18:00 -7°C° 0.4 mm 3 mps 737 mmHg 96%
    19:00 -6°C° 0.2 mm 2 mps 737 mmHg 96%
    20:00 -6°C° 0.2 mm 2 mps 736 mmHg 97%
    21:00 -4°C° 0.2 mm 1 mps 736 mmHg 97%
    22:00 -7°C° 0.1 mm 2 mps 737 mmHg 97%
    23:00 -7°C° 0.1 mm 2 mps 737 mmHg 97%

    Day after tomorrow, 21 February, Thursday

    Time Temperature Precipitation Wind Pressure Humidity
    00:00 -7°C° 0.1 mm 2 mps 737 mmHg 96%
    01:00 -8°C° 0 mm 2 mps 738 mmHg 96%
    02:00 -9°C° 0 mm 2 mps 739 mmHg 96%
    03:00 -9°C° 0 mm 2 mps 739 mmHg 96%
    04:00 -10°C° 0 mm 2 mps 740 mmHg 96%
    05:00 -12°C° 0 mm 2 mps 741 mmHg 96%
    06:00 -12°C° 0 mm 2 mps 741 mmHg 96%
    07:00 -12°C° 0 mm 3 mps 742 mmHg 95%
    08:00 -10°C° 0 mm 3 mps 743 mmHg 94%
    09:00 -8°C° 0 mm 3 mps 744 mmHg 92%
    10:00 -8°C° 0 mm 3 mps 744 mmHg 90%
    11:00 -7°C° 0 mm 3 mps 745 mmHg 88%
    12:00 -7°C° 0 mm 4 mps 746 mmHg 86%
    13:00 -5°C° 0 mm 4 mps 746 mmHg 85%
    14:00 -5°C° 0 mm 4 mps 746 mmHg 84%
    15:00 -5°C° 0 mm 4 mps 746 mmHg 83%
    16:00 -5°C° 0 mm 3 mps 747 mmHg 85%
    17:00 -6°C° 0 mm 3 mps 747 mmHg 87%
    18:00 -6°C° 0 mm 2 mps 748 mmHg 88%
    19:00 -6°C° 0 mm 2 mps 749 mmHg 89%
    20:00 -7°C° 0 mm 2 mps 749 mmHg 91%
    21:00 -7°C° 0 mm 2 mps 750 mmHg 92%
    22:00 -8°C° 0 mm 2 mps 751 mmHg 93%
    23:00 -10°C° 0 mm 2 mps 751 mmHg 94%

    22 February, Friday

    Time Temperature Precipitation Wind Pressure Humidity
    00:00 -12°C° 0 mm 2 mps 752 mmHg 95%
    01:00 -13°C° 0 mm 2 mps 752 mmHg 95%
    02:00 -14°C° 0 mm 2 mps 752 mmHg 96%
    03:00 -14°C° 0 mm 2 mps 753 mmHg 96%
    04:00 -15°C° 0 mm 2 mps 753 mmHg 96%
    05:00 -16°C° 0 mm 2 mps 753 mmHg 96%
    06:00 -17°C° 0 mm 2 mps 753 mmHg 96%
    07:00 -14°C° 0 mm 1 mps 754 mmHg 94%
    08:00 -13°C° 0 mm 1 mps 754 mmHg 91%
    09:00 -12°C° 0 mm 1 mps 754 mmHg 89%
    10:00 -10°C° 0 mm 1 mps 754 mmHg 86%
    11:00 -7°C° 0 mm 0 mps 753 mmHg 83%
    12:00 -5°C° 0 mm 0 mps 753 mmHg 80%
    13:00 -5°C° 0.2 mm 0 mps 753 mmHg 82%
    14:00 -5°C° 0.2 mm 0 mps 752 mmHg 85%
    15:00 -5°C° 0.2 mm 0 mps 752 mmHg 88%
    16:00 -5°C° 0.4 mm 0 mps 752 mmHg 91%
    17:00 -6°C° 0.4 mm 1 mps 751 mmHg 94%
    18:00 -6°C° 0.4 mm 1 mps 751 mmHg 97%
    19:00 -6°C° 0.5 mm 1 mps 751 mmHg 98%
    20:00 -6°C° 0.5 mm 1 mps 751 mmHg 98%
    21:00 -7°C° 0.5 mm 2 mps 750 mmHg 98%
    22:00 -7°C° 0.4 mm 2 mps 750 mmHg 97%
    23:00 -6°C° 0.4 mm 2 mps 750 mmHg 97%

    23 February, Saturday

    Time Temperature Precipitation Wind Pressure Humidity
    00:00 -6°C° 0.4 mm 2 mps 750 mmHg 97%
    01:00 -6°C° 0.3 mm 2 mps 749 mmHg 97%
    02:00 -7°C° 0.3 mm 3 mps 748 mmHg 97%
    03:00 -7°C° 0.3 mm 3 mps 748 mmHg 97%
    04:00 -7°C° 0.1 mm 3 mps 747 mmHg 97%
    05:00 -7°C° 0.1 mm 3 mps 747 mmHg 97%
    06:00 -6°C° 0.1 mm 3 mps 747 mmHg 97%
    07:00 -6°C° 0.2 mm 3 mps 746 mmHg 96%
    08:00 -6°C° 0.2 mm 3 mps 746 mmHg 96%
    09:00 -5°C° 0.2 mm 3 mps 746 mmHg 95%
    10:00 -4°C° 0.1 mm 4 mps 745 mmHg 95%
    11:00 -4°C° 0.1 mm 4 mps 745 mmHg 94%
    12:00 -4°C° 0.1 mm 5 mps 744 mmHg 94%
    13:00 -4°C° 0.5 mm 5 mps 743 mmHg 94%
    14:00 -4°C° 0.5 mm 5 mps 742 mmHg 95%
    15:00 -4°C° 0.5 mm 5 mps 741 mmHg 95%
    16:00 -4°C° 0.9 mm 5 mps 740 mmHg 95%
    17:00 -4°C° 0.9 mm 5 mps 740 mmHg 95%
    18:00 -4°C° 0.9 mm 5 mps 739 mmHg 95%
    19:00 -4°C° 1 mm 6 mps 738 mmHg 95%
    20:00 -4°C° 1 mm 6 mps 738 mmHg 95%
    21:00 -4°C° 1 mm 6 mps 737 mmHg 94%
    22:00 -4°C° 1.1 mm 6 mps 736 mmHg 95%
    23:00 -4°C° 1.1 mm 6 mps 735 mmHg 95%

    24 February, Sunday

    Time Temperature Precipitation Wind Pressure Humidity
    00:00 -4°C° 1.1 mm 5 mps 734 mmHg 96%
    01:00 -4°C° 0.9 mm 6 mps 733 mmHg 95%
    02:00 -4°C° 0.9 mm 6 mps 733 mmHg 94%
    03:00 -4°C° 0.9 mm 7 mps 732 mmHg 93%
    04:00 -6°C° 1.2 mm 7 mps 732 mmHg 93%
    05:00 -6°C° 1.2 mm 7 mps 732 mmHg 93%
    06:00 -6°C° 1.2 mm 7 mps 732 mmHg 92%
    07:00 -6°C° 0.9 mm 7 mps 732 mmHg 92%
    08:00 -6°C° 0.9 mm 6 mps 733 mmHg 92%
    09:00 -6°C° 0.9 mm 6 mps 733 mmHg 91%
    10:00 -6°C° 0.8 mm 6 mps 734 mmHg 91%
    11:00 -8°C° 0.8 mm 7 mps 735 mmHg 91%
    12:00 -8°C° 0.8 mm 7 mps 736 mmHg 90%
    13:00 -8°C° 0.5 mm 6 mps 737 mmHg 90%
    14:00 -9°C° 0.5 mm 6 mps 738 mmHg 90%
    15:00 -9°C° 0.5 mm 6 mps 739 mmHg 89%
    16:00 -10°C° 0.1 mm 6 mps 740 mmHg 88%
    17:00 -10°C° 0.1 mm 5 mps 741 mmHg 87%
    18:00 -11°C° 0.1 mm 5 mps 742 mmHg 85%
    19:00 -11°C° 0 mm 4 mps 743 mmHg 86%
    20:00 -12°C° 0 mm 4 mps 744 mmHg 86%
    21:00 -12°C° 0 mm 4 mps 745 mmHg 87%
    22:00 -14°C° 0 mm 3 mps 746 mmHg 88%
    23:00 -15°C° 0 mm 3 mps 746 mmHg 89%
    Show more